GW4629 Weather Reports


Display with metric or nautical units.
time (UTC)temp
F
wind
direction
speed
MPH
gust
MPH
rain 1hr
in
rain 24hr
in
rain mn
in
humidity
%
barometer
mb
20260831102615 61 87 9.0 10.0 0.00 0.00 0.00 99 1026.2
20260831102110 61 87 9.0 10.0 0.00 0.00 0.00 99 1026.2
20260831101609 61 101 6.0 8.0 0.00 0.00 0.00 99 1026.1
20260831101106 61 101 6.0 8.0 0.00 0.00 0.00 99 1026.1
20260831100602 62 97 9.0 10.0 0.00 0.00 0.00 99 1026.0
20260831100057 62 97 9.0 10.0 0.00 0.00 0.00 99 1026.0
20260831095555 62 76 15.0 16.0 0.00 0.00 0.00 99 1026.0
20260831095050 62 76 15.0 16.0 0.00 0.00 0.00 99 1026.0
20260831094546 62 78 10.0 21.0 0.00 0.00 0.00 99 1025.8
20260831094042 62 78 10.0 21.0 0.00 0.00 0.00 99 1025.8
20260831093537 62 66 7.0 8.0 0.00 0.00 0.00 99 1025.7
20260831093033 62 66 7.0 8.0 0.00 0.00 0.00 99 1025.7
20260831092528 62 93 11.0 15.0 0.00 0.00 0.00 99 1025.6
20260831092024 62 93 11.0 15.0 0.00 0.00 0.00 99 1025.6
20260831091519 61 82 9.0 10.0 0.00 0.00 0.00 99 1025.5
20260831091015 61 82 9.0 10.0 0.00 0.00 0.00 99 1025.5
20260831090510 61 120 8.0 9.0 0.00 0.00 0.00 99 1025.6
20260831090006 61 120 8.0 9.0 0.00 0.00 0.00 99 1025.6
20260831085501 61 140 9.0 11.0 0.00 0.00 0.00 99 1025.6
20260831085001 61 140 9.0 11.0 0.00 0.00 0.00 99 1025.6
20260831084457 62 139 3.0 4.0 0.00 0.00 0.00 99 1025.8
20260831083953 62 139 3.0 4.0 0.00 0.00 0.00 99 1025.8
20260831083447 62 92 6.0 8.0 0.00 0.00 0.00 99 1025.8
20260831082942 62 92 6.0 8.0 0.00 0.00 0.00 99 1025.8
20260831082442 63 127 11.0 14.0 0.00 0.00 0.00 99 1025.6
20260831081936 63 127 11.0 14.0 0.00 0.00 0.00 99 1025.6
20260831081432 63 85 6.0 8.0 0.00 0.00 0.00 99 1026.0
20260831080928 63 85 6.0 8.0 0.00 0.00 0.00 99 1026.0
20260831080423 64 53 12.0 14.0 0.00 0.00 0.00 99 1026.0
20260831075919 64 53 12.0 14.0 0.00 0.00 0.00 99 1026.0
20260831075414 64 48 6.0 9.0 0.00 0.00 0.00 99 1025.7
20260831074909 64 48 6.0 9.0 0.00 0.00 0.00 99 1025.7
20260831074408 63 19 10.0 15.0 0.00 0.00 0.00 99 1025.6
20260831073903 63 19 10.0 15.0 0.00 0.00 0.00 99 1025.6
20260831073402 63 88 11.0 17.0 0.00 0.00 0.00 99 1025.7
20260831072857 63 88 11.0 17.0 0.00 0.00 0.00 99 1025.7
20260831072353 62 104 6.0 10.0 0.00 0.00 0.00 99 1026.0
20260831071849 62 104 6.0 10.0 0.00 0.00 0.00 99 1026.0
20260831071348 61 80 2.0 4.0 0.00 0.00 0.00 99 1026.0
20260831070843 61 80 2.0 4.0 0.00 0.00 0.00 99 1026.0
20260831070342 62 72 1.0 2.0 0.00 0.00 0.00 99 1026.6
20260831065841 62 72 1.0 2.0 0.00 0.00 0.00 99 1026.6
20260831065339 61 147 0.0 0.0 0.00 0.00 0.00 99 1026.5
20260831064834 61 147 0.0 0.0 0.00 0.00 0.00 99 1026.5
20260831064330 62 157 1.0 1.0 0.00 0.00 0.00 99 1026.6
20260831063826 62 157 1.0 1.0 0.00 0.00 0.00 99 1026.6
20260831063326 62 221 2.0 3.0 0.00 0.00 0.00 99 1026.7
20260831062826 62 221 2.0 3.0 0.00 0.00 0.00 99 1026.7
20260831062321 62 150 2.0 3.0 0.00 0.00 0.00 99 1026.8
20260831061821 62 150 2.0 3.0 0.00 0.00 0.00 99 1026.8
20260831061320 62 160 5.0 6.0 0.00 0.00 0.00 99 1026.8
20260831060816 62 160 5.0 6.0 0.00 0.00 0.00 99 1026.8
20260831060316 61 115 0.0 1.0 0.00 0.05 0.05 99 1027.1
20260831055815 61 115 0.0 1.0 0.00 0.05 0.05 99 1027.1
20260831055311 62 121 1.0 2.0 0.00 0.05 0.05 99 1027.1
20260831054806 62 121 1.0 2.0 0.00 0.05 0.05 99 1027.1
20260831054301 62 241 2.0 3.0 0.00 0.05 0.05 99 1027.2
20260831053800 62 241 2.0 3.0 0.00 0.05 0.05 99 1027.2
20260831053258 64 70 3.0 3.0 0.00 0.05 0.05 99 1026.8
20260831052753 64 70 3.0 3.0 0.00 0.05 0.05 99 1026.8
20260831052252 64 223 2.0 2.0 0.00 0.05 0.05 99 1026.6
20260831051745 64 223 2.0 2.0 0.00 0.05 0.05 99 1026.6
20260831051244 64 60 4.0 7.0 0.00 0.05 0.05 99 1027.0
20260831050739 62 132 2.0 2.0 0.00 0.05 0.05 99 1026.8
20260831050238 62 132 2.0 2.0 0.00 0.05 0.05 99 1026.8
20260831045732 64 328 8.0 9.0 0.00 0.05 0.05 99 1026.7
20260831045227 64 328 8.0 9.0 0.00 0.05 0.05 99 1026.7
20260831044721 63 53 2.0 3.0 0.00 0.05 0.05 99 1027.0
20260831044211 63 53 2.0 3.0 0.00 0.05 0.05 99 1027.0
20260831043707 64 124 6.0 7.0 0.00 0.05 0.05 99 1026.8
20260831043202 64 124 6.0 7.0 0.00 0.05 0.05 99 1026.8
20260831042701 65 66 4.0 4.0 0.00 0.05 0.05 99 1027.5
20260831042156 65 66 4.0 4.0 0.00 0.05 0.05 99 1027.5
20260831041650 63 123 6.0 7.0 0.00 0.05 0.05 99 1027.2
20260831041145 63 123 6.0 7.0 0.00 0.05 0.05 99 1027.2
20260831040640 62 154 1.0 2.0 0.00 0.05 0.05 99 1027.3
20260831040138 62 154 1.0 2.0 0.00 0.05 0.05 99 1027.3
20260831035637 64 174 1.0 1.0 0.00 0.05 0.05 99 1026.8
20260831035137 64 174 1.0 1.0 0.00 0.05 0.05 99 1026.8
20260831034636 64 120 2.0 2.0 0.00 0.05 0.05 99 1027.1
20260831034132 64 120 2.0 2.0 0.00 0.05 0.05 99 1027.1
20260831033628 64 68 5.0 7.0 0.00 0.05 0.05 99 1027.3
20260831033123 64 68 5.0 7.0 0.00 0.05 0.05 99 1027.3
20260831032622 63 58 3.0 3.0 0.00 0.05 0.05 99 1027.2
20260831032118 63 58 3.0 3.0 0.00 0.05 0.05 99 1027.2
20260831031618 64 81 4.0 4.0 0.00 0.05 0.05 99 1027.1
20260831031117 64 81 4.0 4.0 0.00 0.05 0.05 99 1027.1
20260831030616 64 53 5.0 6.0 0.00 0.05 0.05 99 1026.8
20260831030116 64 53 5.0 6.0 0.00 0.05 0.05 99 1026.8
20260831025614 64 67 4.0 6.0 0.00 0.05 0.05 99 1026.8
20260831025109 64 67 4.0 6.0 0.00 0.05 0.05 99 1026.8
20260831024606 64 121 3.0 3.0 0.00 0.05 0.05 99 1026.6
20260831024104 64 121 3.0 3.0 0.00 0.05 0.05 99 1026.6
20260831023603 65 25 2.0 4.0 0.00 0.05 0.05 99 1026.6
20260831023102 65 25 2.0 4.0 0.00 0.05 0.05 99 1026.6
20260831022556 65 325 5.0 8.0 0.00 0.05 0.05 99 1026.2
20260831022052 65 325 5.0 8.0 0.00 0.05 0.05 99 1026.2
20260831021550 65 45 9.0 11.0 0.00 0.05 0.05 99 1026.0
20260831021047 65 45 9.0 11.0 0.00 0.05 0.05 99 1026.0
20260831020542 65 63 6.0 7.0 0.00 0.05 0.05 99 1026.0
20260831020037 65 63 6.0 7.0 0.00 0.05 0.05 99 1026.0
20260831015532 65 53 9.0 15.0 0.00 0.05 0.05 99 1025.8
20260831015027 65 53 9.0 15.0 0.00 0.05 0.05 99 1025.8
20260831014522 65 71 9.0 14.0 0.00 0.05 0.05 99 1025.8
20260831014018 65 71 9.0 14.0 0.00 0.05 0.05 99 1025.8
20260831013514 65 40 11.0 14.0 0.00 0.05 0.05 99 1025.8
20260831013008 65 40 11.0 14.0 0.00 0.05 0.05 99 1025.8
20260831012503 65 70 5.0 6.0 0.00 0.05 0.05 99 1026.0
20260831012003 65 70 5.0 6.0 0.00 0.05 0.05 99 1026.0
20260831011457 66 94 2.0 3.0 0.00 0.05 0.05 99 1026.0
20260831010953 66 94 2.0 3.0 0.00 0.05 0.05 99 1026.0
20260831010452 66 86 4.0 6.0 0.00 0.05 0.05 99 1025.8
20260831005948 66 86 4.0 6.0 0.00 0.05 0.05 99 1025.8
20260831005444 66 43 4.0 6.0 0.00 0.05 0.05 99 1026.0
20260831004943 66 43 4.0 6.0 0.00 0.05 0.05 99 1026.0
20260831004440 67 70 7.0 11.0 0.00 0.05 0.05 99 1025.7
20260831003936 67 70 7.0 11.0 0.00 0.05 0.05 99 1025.7
20260831003431 68 52 7.0 9.0 0.00 0.05 0.05 99 1026.1
20260831002931 68 52 7.0 9.0 0.00 0.05 0.05 99 1026.1
20260831002430 68 85 13.0 14.0 0.00 0.05 0.05 99 1026.2
20260831001925 68 85 13.0 14.0 0.00 0.05 0.05 99 1026.2
20260831001420 68 62 8.0 13.0 0.00 0.05 0.05 99 1026.0
20260831000918 68 62 8.0 13.0 0.00 0.05 0.05 99 1026.0
20260831000413 68 54 15.0 18.0 0.00 0.05 0.05 99 1025.8
20260830235911 68 54 15.0 18.0 0.00 0.05 0.05 99 1025.8
20260830235406 68 63 11.0 16.0 0.00 0.05 0.05 99 1026.1
20260830234902 68 63 11.0 16.0 0.00 0.05 0.05 99 1026.1
20260830234357 69 86 11.0 15.0 0.00 0.05 0.05 99 1026.1
20260830233853 69 86 11.0 15.0 0.00 0.05 0.05 99 1026.1
20260830233348 69 358 3.0 3.0 0.00 0.05 0.05 99 1026.1
20260830232844 69 358 3.0 3.0 0.00 0.05 0.05 99 1026.1
20260830232339 69 78 6.0 8.0 0.00 0.05 0.05 99 1025.8
20260830231836 69 78 6.0 8.0 0.00 0.05 0.05 99 1025.8
20260830231336 69 105 14.0 16.0 0.00 0.05 0.05 99 1025.7
20260830230830 69 105 14.0 16.0 0.00 0.05 0.05 99 1025.7
20260830230325 67 170 6.0 8.0 0.00 0.05 0.05 99 1025.5
20260830225825 67 170 6.0 8.0 0.00 0.05 0.05 99 1025.5
20260830225321 65 119 1.0 1.0 0.00 0.05 0.05 99 1026.0
20260830224820 65 119 1.0 1.0 0.00 0.05 0.05 99 1026.0
20260830224315 65 47 3.0 4.0 0.00 0.05 0.05 99 1026.0
20260830223812 65 47 3.0 4.0 0.00 0.05 0.05 99 1026.0
20260830223308 64 81 11.0 16.0 0.00 0.05 0.05 99 1025.8
20260830222807 64 81 11.0 16.0 0.00 0.05 0.05 99 1025.8
20260830222306 64 127 8.0 9.0 0.00 0.05 0.05 99 1025.7
20260830221758 64 127 8.0 9.0 0.00 0.05 0.05 99 1025.7
20260830221255 64 68 11.0 14.0 0.00 0.05 0.05 99 1025.3
20260830220755 64 68 11.0 14.0 0.00 0.05 0.05 99 1025.3
20260830220255 63 134 23.0 29.0 0.00 0.05 0.05 99 1025.1
20260830215753 63 134 23.0 29.0 0.00 0.05 0.05 99 1025.1
20260830215248 63 97 19.0 23.0 0.00 0.05 0.05 99 1025.0
20260830214743 63 97 19.0 23.0 0.00 0.05 0.05 99 1025.0
20260830214243 63 79 21.0 25.0 0.00 0.05 0.05 99 1025.5
20260830213742 63 79 21.0 25.0 0.00 0.05 0.05 99 1025.5
20260830213237 62 42 8.0 10.0 0.00 0.05 0.05 99 1025.6
20260830212733 62 42 8.0 10.0 0.00 0.05 0.05 99 1025.6
20260830212229 61 72 16.0 23.0 0.00 0.05 0.05 99 1025.8
20260830211728 61 72 16.0 23.0 0.00 0.05 0.05 99 1025.8
20260830211227 62 73 11.0 14.0 0.00 0.05 0.05 99 1026.1
20260830210724 62 73 11.0 14.0 0.00 0.05 0.05 99 1026.1
20260830210223 61 64 20.0 23.0 0.00 0.05 0.05 99 1026.6
20260830205720 61 64 20.0 23.0 0.00 0.05 0.05 99 1026.6
20260830205215 61 73 13.0 15.0 0.00 0.05 0.05 99 1027.2
20260830204710 61 73 13.0 15.0 0.00 0.05 0.05 99 1027.2
20260830204209 62 69 15.0 22.0 0.00 0.05 0.05 99 1027.2
20260830203705 62 69 15.0 22.0 0.00 0.05 0.05 99 1027.2
20260830203201 62 57 15.0 17.0 0.00 0.05 0.05 99 1027.5
20260830202700 62 57 15.0 17.0 0.00 0.05 0.05 99 1027.5
20260830202155 62 82 20.0 23.0 0.00 0.05 0.05 99 1027.1
20260830201655 62 82 20.0 23.0 0.00 0.05 0.05 99 1027.1
20260830201150 63 345 4.0 6.0 0.00 0.05 0.05 99 1027.5
20260830200640 62 333 3.0 3.0 0.00 0.05 0.05 99 1027.1
20260830200139 62 333 3.0 3.0 0.00 0.05 0.05 99 1027.1
20260830195635 62 74 11.0 17.0 0.00 0.05 0.05 99 1026.8
20260830195133 62 74 11.0 17.0 0.00 0.05 0.05 99 1026.8
20260830194632 63 169 17.0 21.0 0.00 0.05 0.05 99 1025.8
20260830194131 63 169 17.0 21.0 0.00 0.05 0.05 99 1025.8
20260830193626 63 123 2.0 3.0 0.00 0.05 0.05 99 1025.8
20260830193121 63 123 2.0 3.0 0.00 0.05 0.05 99 1025.8
20260830192611 62 146 6.0 9.0 0.00 0.05 0.05 99 1025.6
20260830192105 62 146 6.0 9.0 0.00 0.05 0.05 99 1025.6
20260830191601 60 91 7.0 9.0 0.00 0.05 0.05 99 1025.6
20260830191056 60 91 7.0 9.0 0.00 0.05 0.05 99 1025.6
20260830190551 60 114 13.0 17.0 0.00 0.05 0.05 99 1025.5
20260830190046 60 114 13.0 17.0 0.00 0.05 0.05 99 1025.5
20260830185539 60 67 16.0 19.0 0.00 0.05 0.05 99 1025.7
20260830185035 60 67 16.0 19.0 0.00 0.05 0.05 99 1025.7
20260830184534 60 69 9.0 11.0 0.00 0.05 0.05 99 1026.5
20260830184029 60 69 9.0 11.0 0.00 0.05 0.05 99 1026.5
20260830183523 58 15 7.0 9.0 0.00 0.05 0.05 99 1027.1
20260830183019 58 15 7.0 9.0 0.00 0.05 0.05 99 1027.1
20260830182514 54 156 6.0 11.0 0.31 0.05 0.05 99 1027.0
20260830182010 54 156 6.0 11.0 0.31 0.05 0.05 99 1027.0
20260830181506 64 107 38.0 40.0 0.00 0.00 0.00 99 1026.5
20260830181005 64 107 38.0 40.0 0.00 0.00 0.00 99 1026.5
20260830180459 66 146 4.0 4.0 0.00 0.00 0.00 99 1026.0
20260830175952 66 146 4.0 4.0 0.00 0.00 0.00 99 1026.0
20260830175452 67 153 2.0 2.0 0.00 0.00 0.00 99 1025.8
20260830174942 67 153 2.0 2.0 0.00 0.00 0.00 99 1025.8
20260830174438 66 156 4.0 4.0 0.00 0.00 0.00 99 1026.0
20260830173933 66 156 4.0 4.0 0.00 0.00 0.00 99 1026.0
20260830173429 66 122 0.0 0.0 0.00 0.00 0.00 99 1026.0
20260830172924 66 122 0.0 0.0 0.00 0.00 0.00 99 1026.0
20260830172421 66 111 1.0 2.0 0.00 0.00 0.00 99 1026.2
20260830171916 66 111 1.0 2.0 0.00 0.00 0.00 99 1026.2
20260830171411 67 4 3.0 3.0 0.00 0.00 0.00 99 1026.1
20260830170906 67 4 3.0 3.0 0.00 0.00 0.00 99 1026.1
20260830170405 67 59 1.0 1.0 0.00 0.00 0.00 99 1026.1
20260830165903 67 59 1.0 1.0 0.00 0.00 0.00 99 1026.1
20260830165400 65 331 4.0 4.0 0.00 0.00 0.00 99 1026.2
20260830164856 65 331 4.0 4.0 0.00 0.00 0.00 99 1026.2
20260830164352 66 83 1.0 2.0 0.00 0.00 0.00 99 1026.1
20260830163848 66 83 1.0 2.0 0.00 0.00 0.00 99 1026.1
20260830163343 65 114 0.0 1.0 0.00 0.00 0.00 99 1026.1
20260830162838 65 114 0.0 1.0 0.00 0.00 0.00 99 1026.1
20260830162334 63 129 2.0 3.0 0.00 0.00 0.00 99 1026.3
20260830161834 63 129 2.0 3.0 0.00 0.00 0.00 99 1026.3
20260830161333 63 99 1.0 2.0 0.00 0.00 0.00 99 1026.3
20260830160829 63 99 1.0 2.0 0.00 0.00 0.00 99 1026.3
20260830160324 60 105 2.0 2.0 0.00 0.00 0.00 99 1026.3
20260830155820 60 105 2.0 2.0 0.00 0.00 0.00 99 1026.3
20260830155316 60 81 6.0 7.0 0.00 0.00 0.00 99 1026.5
20260830154816 60 81 6.0 7.0 0.00 0.00 0.00 99 1026.5
20260830154312 60 86 5.0 7.0 0.00 0.00 0.00 99 1026.6
20260830153808 60 86 5.0 7.0 0.00 0.00 0.00 99 1026.6
20260830153304 60 104 9.0 9.0 0.00 0.00 0.00 99 1026.5
20260830152802 60 104 9.0 9.0 0.00 0.00 0.00 99 1026.5
20260830152257 60 67 6.0 7.0 0.00 0.00 0.00 99 1026.7
20260830151756 60 67 6.0 7.0 0.00 0.00 0.00 99 1026.7
20260830151256 59 77 4.0 6.0 0.00 0.00 0.00 99 1027.2
20260830150751 59 77 4.0 6.0 0.00 0.00 0.00 99 1027.2
20260830150251 59 163 6.0 7.0 0.00 0.00 0.00 99 1027.6
20260830145746 59 163 6.0 7.0 0.00 0.00 0.00 99 1027.6
20260830145241 60 117 9.0 9.0 0.00 0.00 0.00 99 1027.3
20260830144736 60 117 9.0 9.0 0.00 0.00 0.00 99 1027.3
20260830144232 61 88 7.0 10.0 0.00 0.00 0.00 99 1027.2
20260830143728 61 88 7.0 10.0 0.00 0.00 0.00 99 1027.2
20260830143226 60 206 7.0 9.0 0.00 0.00 0.00 99 1026.2
20260830142721 60 206 7.0 9.0 0.00 0.00 0.00 99 1026.2
20260830142216 60 158 6.0 9.0 0.00 0.00 0.00 99 1026.2
20260830141711 60 158 6.0 9.0 0.00 0.00 0.00 99 1026.2
20260830141206 60 121 11.0 13.0 0.00 0.00 0.00 99 1026.2
20260830140701 60 121 11.0 13.0 0.00 0.00 0.00 99 1026.2
20260830140156 60 132 9.0 9.0 0.00 0.00 0.00 99 1026.2
20260830135651 60 132 9.0 9.0 0.00 0.00 0.00 99 1026.2
20260830135146 61 99 7.0 10.0 0.00 0.00 0.00 99 1026.1
20260830134642 61 99 7.0 10.0 0.00 0.00 0.00 99 1026.1
20260830134137 61 138 6.0 8.0 0.00 0.00 0.00 99 1025.7
20260830133633 61 138 6.0 8.0 0.00 0.00 0.00 99 1025.7
20260830133128 60 113 7.0 8.0 0.00 0.00 0.00 99 1025.8
20260830132624 60 113 7.0 8.0 0.00 0.00 0.00 99 1025.8
20260830132119 61 74 5.0 6.0 0.00 0.00 0.00 99 1025.8
20260830131618 61 74 5.0 6.0 0.00 0.00 0.00 99 1025.8
20260830131113 60 345 4.0 6.0 0.00 0.00 0.00 99 1025.6
20260830130608 60 345 4.0 6.0 0.00 0.00 0.00 99 1025.6
20260830125557 60 83 3.0 4.0 0.00 0.00 0.00 99 1025.5
20260830125056 60 83 3.0 4.0 0.00 0.00 0.00 99 1025.5
20260830124555 60 17 3.0 4.0 0.00 0.00 0.00 99 1025.2
20260830124051 60 17 3.0 4.0 0.00 0.00 0.00 99 1025.2
20260830123548 60 104 1.0 2.0 0.00 0.00 0.00 99 1025.5
20260830123048 60 104 1.0 2.0 0.00 0.00 0.00 99 1025.5
20260830122545 60 33 4.0 4.0 0.00 0.00 0.00 99 1025.8
20260830122041 60 33 4.0 4.0 0.00 0.00 0.00 99 1025.8
20260830121536 61 349 9.0 11.0 0.00 0.00 0.00 99 1025.2
20260830121036 61 349 9.0 11.0 0.00 0.00 0.00 99 1025.2
20260830120531 60 62 6.0 7.0 0.00 0.00 0.00 99 1025.5
20260830120028 60 62 6.0 7.0 0.00 0.00 0.00 99 1025.5
20260830115524 59 131 10.0 11.0 0.00 0.00 0.00 99 1025.7
20260830115025 59 131 10.0 11.0 0.00 0.00 0.00 99 1025.7
20260830114521 59 165 6.0 8.0 0.00 0.00 0.00 99 1025.6
20260830114016 59 165 6.0 8.0 0.00 0.00 0.00 99 1025.6
20260830113515 60 85 6.0 6.0 0.00 0.00 0.00 99 1025.6
20260830113011 60 85 6.0 6.0 0.00 0.00 0.00 99 1025.6
20260830112508 58 74 7.0 8.0 0.00 0.00 0.00 99 1025.2
20260830112004 58 74 7.0 8.0 0.00 0.00 0.00 99 1025.2
20260830111459 59 104 7.0 8.0 0.00 0.00 0.00 99 1025.3
20260830110955 59 104 7.0 8.0 0.00 0.00 0.00 99 1025.3
20260830110455 59 162 11.0 11.0 0.00 0.00 0.00 99 1025.0
20260830105954 59 162 11.0 11.0 0.00 0.00 0.00 99 1025.0
20260830105450 59 166 9.0 10.0 0.00 0.00 0.00 99 1025.3
20260830104946 59 166 9.0 10.0 0.00 0.00 0.00 99 1025.3
20260830104442 59 99 9.0 10.0 0.00 0.00 0.00 99 1024.8
20260830103937 59 99 9.0 10.0 0.00 0.00 0.00 99 1024.8
20260830103433 59 93 6.0 8.0 0.00 0.00 0.00 99 1024.8
20260830102931 59 93 6.0 8.0 0.00 0.00 0.00 99 1024.8